Regional Weather Roundup
Issued by NWS

Home | Current Version | Previous Version | Graphics & Text | Print | Product List | Glossary On
Versions: 1 2 3 4 5 6 7 8 9 10 11 12 13 14 15 16 17 18 19 20 21 22 23 24 25 26 27 28 29 30 31 32 33 34 35 36 37 38 39 40 41 42 43 44 45 46 47 48 49 50
000
ASUS43 KMKX 280911
RWRWI

WISCONSIN REGIONAL WEATHER ROUNDUP
NATIONAL WEATHER SERVICE MILWAUKEE/SULLIVAN WI
400 AM CDT TUE APR 28 2015

NOTE: "FAIR" INDICATES FEW OR NO CLOUDS BELOW 12,000 FEET WITH NO
SIGNIFICANT WEATHER AND/OR OBSTRUCTIONS TO VISIBILITY.

WIZ001-002-006>008-014>016-023>028-281000-
NORTHWEST WISCONSIN

CITY           SKY/WX    TMP DP  RH WIND       PRES   REMARKS
SUPERIOR ARPT  PTCLDY    30  29  96 CALM      30.16S
ASHLAND        PTCLDY    31  28  89 SW3       30.16S
HAYWARD        PTCLDY    32  27  81 N5        30.15S WCI  27
SIREN          CLEAR     34  30  87 CALM      30.14S
CUMBERLAND     CLEAR     36  32  87 CALM      30.15S
RICE LAKE      CLEAR     35  33  90 CALM      30.17S
CHETEK         CLEAR     35  32  88 CALM      30.16S
LADYSMITH      PTCLDY    35  31  83 CALM      30.17R
EAU CLAIRE     CLEAR     38  32  79 CALM      30.15R
MENOMONIE      PTCLDY    41  32  70 CALM      30.16S
NEW RICHMOND   CLEAR     37  32  83 CALM      30.16R
OSCEOLA        CLEAR     37  32  81 E3        30.18S
$$

WIZ003>005-009-010-017-018-281000-
NORTH CENTRAL WISCONSIN

CITY           SKY/WX    TMP DP  RH WIND       PRES   REMARKS
MANITOWISH WTR CLEAR     29  29 100 CALM      30.15R
ARBOR VITAE    CLEAR     32  28  86 CALM      30.15S
WOODRUFF       CLEAR     32  28  86 CALM      30.15S
RHINELANDER    CLEAR     32  25  75 CALM      30.16S
EAGLE RIVER    CLEAR     28  27  99 CALM      30.15S
LAND O LAKES   CLEAR     27  27  98 CALM      30.16S
PHILLIPS       CLEAR     30  28  92 CALM      30.15R
TOMAHAWK       CLEAR     28  26  92 CALM      30.16F
MEDFORD        CLEAR     39  32  74 SE3       30.16R
MERRILL        CLEAR     30  28  93 CALM      30.17S
$$

WIZ029-030-035-036-043>047-281000-
CENTRAL WISCONSIN

CITY           SKY/WX    TMP DP  RH WIND       PRES   REMARKS
WAUSAU         CLEAR     38  33  82 CALM      30.15S
MOSINEE        CLEAR     37  32  81 CALM      30.17S
MARSHFIELD     CLEAR     40  33  76 E3        30.16S
STEVENS POINT  CLEAR     32  29  90 CALM      30.17S
WAUPACA        CLEAR     35  32  89 CALM      30.18R
WAUTOMA        CLEAR     32  31  96 CALM      30.18R
WISC RAPIDS    CLEAR     35  30  82 CALM      30.18R
CAMP DOUGLAS   CLEAR     34  34 100 E2        30.15S
$$

WIZ011>013-019>022-031-037>040-048>050-281000-
NORTHEAST WISCONSIN

CITY           SKY/WX    TMP DP  RH WIND       PRES   REMARKS
ANTIGO         CLEAR     32  31  98 E3        30.16F
SHAWANO        CLEAR     36  33  87 CALM      30.17S
OCONTO         CLEAR     31  31 100 CALM      30.16S
STURGEON BAY   PTCLDY    37  30  75 CALM      30.18R
GREEN BAY      CLEAR     37  32  82 N5        30.16S WCI  33
MANITOWOC      CLEAR     38  34  85 N5        30.16R WCI  34
APPLETON       CLEAR     36  32  87 N6        30.17R WCI  31
CLINTONVILLE   CLEAR     34  32  93 CALM      30.18R
OSHKOSH        CLEAR     36  31  82 CALM      30.16R
$$

WIZ032>034-041-042-053>061-281000-
SOUTHWEST WISCONSIN

CITY           SKY/WX    TMP DP  RH WIND       PRES   REMARKS
LA CROSSE      CLEAR     44  38  79 CALM      30.14S
SPARTA         CLEAR     30  29  94 CALM      30.16R
VIROQUA        CLEAR     41  33  71 E8        30.13S
BOSCOBEL       CLEAR     39  36  89 NE3       30.15R
PRAIRIE DU CHI CLEAR     38  34  84 CALM      30.13S
PLATTEVILLE    CLEAR     39  35  86 E10       30.12S WCI  33
$$

WIZ056-057-062-063-064-067-068-281000-
SOUTH CENTRAL WISCONSIN

CITY           SKY/WX    TMP DP  RH WIND       PRES   REMARKS
REEDSBURG      CLEAR     38  33  82 CALM      30.15S
BARABOO/DELLS  CLEAR     37  32  82 CALM      30.15S
LONE ROCK      CLEAR     41  33  73 E5        30.16R
MINERAL POINT  CLEAR     41  36  81 E7        30.14R
MADISON        CLEAR     35  32  88 N3        30.16R
MIDDLETON      CLEAR     36  33  89 CALM      30.16S
WATERTOWN      CLEAR     33  33 100 CALM      30.15R
MONROE         CLEAR     41  34  75 SE5       30.14R
JANESVILLE     CLEAR     34  32  93 CALM      30.15R
$$

WIZ051-052-058>065-066-070>072-281000-
SOUTHEAST WISCONSIN

CITY           SKY/WX    TMP DP  RH WIND       PRES   REMARKS
MILWAUKEE      CLEAR     40  31  70 N7        30.15R
WAUKESHA       CLEAR     36  30  80 NW3       30.15S
MILWAUKEE/TIMM CLEAR     34  28  80 CALM      30.15S
RACINE         CLEAR     39  32  76 N9        30.15R WCI  33
BURLINGTON     CLEAR     32  29  92 CALM      30.14S
KENOSHA        CLEAR     39  32  76 N5        30.14R
FOND DU LAC    CLEAR     31  28  89 W3        30.16R
SHEBOYGAN      CLEAR     37  31  78 N6        30.15R WCI  32
WEST BEND      CLEAR     32  30  93 CALM      30.15S
JUNEAU         CLEAR     34  32  92 CALM      30.16S
$$

LSZ147-162-281000-
LAKE SUPERIOR

STATION/POSITION TIME  TEMP    WIND        PRES    WAVE
                       AIR SEA DIR/SP/G            HT/PER
                 (UTC) (F)     (DEG/KT/KT) (MB)    (FT/S)
W MID LAKE BUOY  0850   36 34  150/  4/  4 1022.3S   0
DEVILS ISLAND    0900   42     130/  2/  3 1021.7F
PORT WING        0840   33     150/  3/  3 1021.3S
SAXON HARBOR     0800   33        CALM     1020.7R
$$

LMZ867-665-643>646-281000-
LAKE MICHIGAN

STATION/POSITION TIME  TEMP    WIND        PRES    WAVE
                       AIR SEA DIR/SP/G            HT/PER
                 (UTC) (F)     (DEG/KT/KT) (MB)    (FT/S)
CHAMBERS ISLAND  0800   35     300/  3/  4 1021.3S
NORTHPORT PIER   0800   39     310/  5/  6 1021.0S
SISTER BAY       0832   38     320/  9/ 10   N/A
KEWAUNEE LAKESHO 0800   36     300/  5/  6 1020.0
SHEBOYGAN LAKESH 0900   42      10/ 14/ 15 1021.7R
PORT WASHINGTON  0800   42     330/  6/  8 1021.3
MILWAUKEE LAKESH 0800   43     360/ 12/ 16   N/A
KENOSHA   LAKESH 0900   42     350/  7/  9 1020.3S
$$

TC  - TEMPERATURE IN CELSIUS
VSB - VISIBILITY IN STATUTE MILES
WCI - WIND CHILL INDEX
HX  - HEAT INDEX




USA.gov is the U.S. government's official web portal to all federal, state and local government web resources and services.